OBJECT J, 59781

Orbit data source: Space-Track

You're viewing an Uncataloged Satellite

Recently launched and/or uncataloged satellites may have evolving metadata. Metadata may include but not limited to: Owner, Maufacturer, Bus, Motor, and Mission.

OBJECT J, 59781 is a satellite owned by Byuro 1440 (CIS) in SSO that was launched on Thu, 16 May 2024 UTC via a SOYUZ-2-1B launch vehicle from the Plesetsk Missile And Space Complex (PKMTR). Unknown objects in Earth's orbit typically refer to objects detected orbiting the Earth but have not yet been identified or cataloged. These objects could be anything from previously untracked satellites, spent rocket stages, debris from satellite collisions, or even natural meteoroids temporarily captured by Earth's gravity.

Loading next visibility...
Identifier
59781, 2024-092J
Orbit
SSO
Country
Flag of CISCIS
Related business
Flag of RUBureau 1440 (RU)
Manufacturer
Byuro 1440
Mission
Operational Commercial Communications
Bus & Motor
RASSVET-2, Unknown motor
Mass
~200 kg wet, ~200 kg dry
Launch date (UTC)
2024-05-16 (1 year ago)
Launch vehicle
SOYUZ-2-1B
Launch site
Plesetsk Missile And Space Complex (PKMTR)
Object type
Unknown
Shape & HBR
Box + 2 Pan, 2.5 m
Radar Cross Section
1.622 m², Medium (>0.1 m² and < 1m²)

Expand to show TLE details & history
Last TLE update: 1 day ago

TLE from 1 day ago
0 OBJECT J
1 59781U 24092J   25312.81388065  .00000428  00000-0  17689-3 0  9997
2 59781  98.6510  67.3996 0013022 135.1707 225.0531 14.31709405 77368
Epoch: 2025-11-08T19:31Z
TLE epoch observation values (Epoch: 2025-11-08T19:31:59.288Z)
Latitude
0.00006°
Longitude
86.16446°
Altitude
795.553 km
Speed
7.452 km/s
True Right ascension
04h 29m 35s
True Declination
0° 00' 00"
Sunlit
Object was in full shadow at epoch
Visualization orbit readout
Latitude
Unknown
Longitude
Unknown
Altitude
Unknown
Speed
Unknown
Apparent Right ascension
Unknown
Apparent Declination
Unknown
Sunlit
N/A
Visualization observer readout
Local Sidereal Time
19:13:04
Azimuth
Unknown
Elevation
Unknown
Doppler factor
Unknown
Orbital elements
Apogee altitude
792.488 km
Perigee altitude
773.837 km
Semi-major axis
7,161.3 km
Eccentricity
0.0013
Inclination
98.651°
RAAN
67.3996°
Arg. of periapsis
135.1707°
True anomaly
224.94761°
Mean anomaly
225.0531°
Eccentric anomaly
225.00034°
Mean motion
3.58142 °/min
Orbital period
100.52 mins
BSTAR
0.00017689
Loading maneuver chart data...
Computing Atmospheric mass density...
Loading historical data...
Loading historical data...
Loading historical data...
Loading historical data...
Loading historical data...
Loading historical data...
Loading historical data...

Documentation

Showing up to 5 results
|